AV279 Weather Reports


Display with metric or nautical units.
time (UTC)temp
F
wind
direction
speed
MPH
gust
MPH
rain 1hr
in
rain 24hr
in
rain mn
in
humidity
%
barometer
mb
20260903122852 72 270 6.0 13.0 0.00 0.00 0.00 82 1018.1
20260903121820 72 270 5.0 9.0 0.00 0.00 0.00 81 1018.2
20260903120841 72 248 7.0 14.0 0.00 0.00 0.00 81 1018.2
20260903115820 72 270 4.0 7.0 0.00 0.00 0.00 81 1018.3
20260903114850 72 270 6.0 12.0 0.00 0.00 0.00 81 1018.3
20260903113830 72 248 6.0 10.0 0.00 0.00 0.00 82 1018.2
20260903112840 72 248 5.0 9.0 0.00 0.00 0.00 83 1018.2
20260903111850 72 248 7.0 13.0 0.00 0.00 0.00 84 1018.1
20260903110830 72 270 5.0 7.0 0.00 0.00 0.00 84 1018.2
20260903105820 72 270 7.0 10.0 0.00 0.00 0.00 84 1018.1
20260903104830 71 270 5.0 9.0 0.00 0.00 0.00 86 1018.2
20260903103830 70 270 3.0 6.0 0.00 0.00 0.00 88 1018.2
20260903102830 70 248 3.0 5.0 0.00 0.00 0.00 88 1018.4
20260903101819 70 270 4.0 8.0 0.00 0.00 0.00 89 1018.4
20260903100830 69 225 6.0 10.0 0.00 0.00 0.00 89 1018.3
20260903095819 69 270 3.0 6.0 0.00 0.00 0.00 90 1018.2
20260903094839 69 225 6.0 13.0 0.00 0.00 0.00 89 1018.1
20260903093819 69 270 6.0 11.0 0.00 0.00 0.00 90 1018.1
20260903092840 68 225 9.0 12.0 0.00 0.01 0.00 90 1017.7
20260903091830 68 225 4.0 6.0 0.00 0.01 0.00 91 1018.0
20260903090819 68 270 4.0 8.0 0.00 0.01 0.00 91 1017.9
20260903085830 68 225 6.0 9.0 0.00 0.01 0.00 91 1017.8
20260903084819 68 248 6.0 12.0 0.00 0.01 0.00 91 1017.7
20260903083819 68 270 6.0 11.0 0.00 0.01 0.00 91 1017.7
20260903082819 68 225 3.0 4.0 0.00 0.01 0.00 91 1017.5
20260903081819 67 270 4.0 7.0 0.00 0.01 0.00 90 1017.6
20260903080820 67 248 8.0 14.0 0.00 0.01 0.00 91 1017.9
20260903075839 67 248 4.0 8.0 0.00 0.01 0.00 90 1017.7
20260903074830 67 293 2.0 5.0 0.00 0.01 0.00 90 1017.7
20260903073819 67 248 4.0 8.0 0.00 0.01 0.00 90 1017.6
20260903072819 67 270 4.0 7.0 0.00 0.01 0.00 90 1017.5
20260903071830 67 248 4.0 7.0 0.00 0.01 0.00 89 1017.5
20260903070830 67 270 6.0 12.0 0.00 0.01 0.00 89 1017.5
20260903065859 67 270 4.0 11.0 0.00 0.01 0.00 89 1017.3
20260903064819 67 270 3.0 6.0 0.00 0.01 0.00 89 1017.2
20260903063819 67 293 4.0 6.0 0.00 0.01 0.00 89 1016.9
20260903062819 67 270 7.0 12.0 0.00 0.01 0.00 89 1016.8
20260903061819 67 248 4.0 7.0 0.00 0.01 0.00 88 1017.0
20260903060830 67 270 4.0 8.0 0.00 0.01 0.00 88 1016.6
20260903055830 67 293 7.0 13.0 0.00 0.01 0.00 88 1016.3
20260903054819 67 270 6.0 21.0 0.00 0.01 0.00 88 1016.1
20260903053849 67 270 5.0 10.0 0.00 0.01 0.00 88 1016.3
20260903052819 67 225 7.0 17.0 0.00 0.01 0.00 87 1016.4
20260903051819 67 248 5.0 8.0 0.00 0.01 0.00 87 1016.4
20260903050819 67 270 3.0 6.0 0.00 0.01 0.00 87 1016.3
20260903045819 67 270 3.0 6.0 0.00 0.01 0.00 86 1016.4
20260903044819 66 270 4.0 6.0 0.00 0.01 0.00 87 1016.4
20260903043819 66 270 4.0 8.0 0.00 0.01 0.00 87 1016.4
20260903042819 66 248 5.0 8.0 0.00 0.01 0.00 87 1016.7
20260903041819 67 248 5.0 10.0 0.00 0.01 0.00 87 1016.5
20260903040819 67 248 3.0 5.0 0.00 0.01 0.00 87 1016.5
20260903035819 67 203 5.0 10.0 0.00 0.01 0.00 87 1016.5
20260903034839 67 225 7.0 20.0 0.00 0.01 0.00 86 1016.4
20260903033819 67 225 4.0 10.0 0.00 0.01 0.00 86 1016.7
20260903032819 67 270 4.0 8.0 0.00 0.01 0.00 86 1016.9
20260903031819 67 270 4.0 8.0 0.00 0.01 0.00 86 1016.7
20260903030829 67 248 4.0 8.0 0.00 0.01 0.00 86 1016.7
20260903025829 67 270 5.0 9.0 0.00 0.01 0.00 86 1016.7
20260903024843 67 270 5.0 7.0 0.00 0.01 0.00 86 1016.6
20260903023829 67 248 5.0 8.0 0.00 0.01 0.00 86 1016.7
20260903022819 67 248 4.0 9.0 0.00 0.01 0.00 86 1016.9
20260903021819 67 270 3.0 6.0 0.00 0.01 0.00 86 1017.0
20260903020839 67 270 6.0 9.0 0.00 0.01 0.00 87 1016.8
20260903015818 67 270 4.0 6.0 0.00 0.01 0.00 86 1017.1
20260903014819 67 270 4.0 8.0 0.00 0.01 0.00 86 1017.2
20260903013912 67 248 5.0 9.0 0.00 0.01 0.00 86 1017.0
20260903012820 67 270 3.0 5.0 0.00 0.01 0.00 86 1017.1
20260903011903 67 270 5.0 8.0 0.00 0.01 0.00 86 1016.8
20260903010839 67 248 4.0 6.0 0.00 0.01 0.00 86 1016.9
20260903005831 67 225 6.0 8.0 0.00 0.01 0.00 86 1016.9
20260903004819 66 225 5.0 7.0 0.00 0.01 0.00 85 1017.1
20260903003820 66 225 4.0 7.0 0.00 0.01 0.00 83 1017.2
20260903002911 66 225 4.0 8.0 0.00 0.01 0.00 82 1017.6
20260903001820 66 225 2.0 5.0 0.00 0.01 0.00 80 1017.6
20260903000818 66 225 4.0 5.0 0.00 0.01 0.00 79 1017.5
20260902235830 66 225 3.0 3.0 0.00 0.01 0.01 79 1017.8
20260902234859 66 225 2.0 5.0 0.00 0.01 0.01 79 1017.6
20260902233829 66 203 5.0 9.0 0.00 0.01 0.01 79 1017.5
20260902232830 66 203 4.0 6.0 0.00 0.01 0.01 80 1017.9
20260902231819 66 225 4.0 6.0 0.00 0.01 0.01 79 1018.2
20260902230830 67 203 4.0 6.0 0.00 0.01 0.01 80 1018.0
20260902225830 67 248 4.0 7.0 0.00 0.01 0.01 80 1017.9
20260902224819 67 248 5.0 7.0 0.00 0.01 0.01 79 1018.1
20260902223819 67 248 4.0 8.0 0.00 0.01 0.01 77 1018.1
20260902222850 67 225 6.0 12.0 0.00 0.01 0.01 77 1018.3
20260902221818 67 225 5.0 8.0 0.00 0.01 0.01 77 1018.2
20260902220819 67 225 6.0 9.0 0.00 0.01 0.01 76 1018.2
20260902215819 67 203 7.0 12.0 0.00 0.01 0.01 77 1018.4
20260902214851 67 225 4.0 7.0 0.00 0.01 0.01 77 1018.4
20260902213819 67 225 5.0 8.0 0.00 0.01 0.01 76 1018.3
20260902212819 67 225 3.0 6.0 0.00 0.01 0.01 76 1018.3
20260902211820 67 225 5.0 7.0 0.00 0.01 0.01 76 1018.5
20260902211015 66 270 3.0 5.0 0.00 0.01 0.01 76 1018.7
20260902205818 66 225 4.0 6.0 0.00 0.01 0.01 76 1018.5
20260902204840 66 248 6.0 9.0 0.00 0.01 0.01 76 1018.5
20260902203818 66 225 6.0 9.0 0.00 0.01 0.01 75 1018.6
20260902202819 66 225 7.0 12.0 0.00 0.01 0.01 75 1018.6
20260902202016 66 225 4.0 6.0 0.00 0.01 0.01 75 1018.7
20260902201020 67 225 4.0 6.0 0.00 0.01 0.01 74 1018.7
20260902200020 67 225 6.0 10.0 0.00 0.01 0.01 73 1018.7
20260902195020 67 225 4.0 7.0 0.00 0.01 0.01 73 1018.8
20260902194020 67 203 5.0 9.0 0.00 0.01 0.01 73 1018.9
20260902193020 67 248 4.0 9.0 0.00 0.01 0.01 72 1018.9
20260902192029 67 225 4.0 7.0 0.00 0.01 0.01 72 1018.8
20260902191039 67 203 4.0 7.0 0.00 0.01 0.01 71 1018.8
20260902190019 67 225 3.0 6.0 0.00 0.01 0.01 71 1018.6
20260902185019 67 225 4.0 7.0 0.00 0.01 0.01 71 1018.7
20260902184020 67 203 3.0 4.0 0.00 0.01 0.01 70 1018.8
20260902183020 67 225 5.0 7.0 0.00 0.01 0.01 70 1018.8
20260902182020 67 203 4.0 8.0 0.00 0.01 0.01 69 1018.7
20260902181020 67 225 4.0 6.0 0.00 0.01 0.01 69 1018.7
20260902180020 68 225 5.0 7.0 0.00 0.01 0.01 67 1018.7
20260902175020 68 225 5.0 7.0 0.00 0.01 0.01 67 1018.7
20260902174050 68 225 4.0 9.0 0.00 0.01 0.01 66 1018.7
20260902173020 69 225 3.0 7.0 0.00 0.01 0.01 67 1019.0
20260902172020 69 225 5.0 7.0 0.00 0.01 0.01 66 1018.9
20260902171020 69 225 5.0 8.0 0.00 0.01 0.01 66 1018.9
20260902170020 69 270 3.0 4.0 0.00 0.01 0.01 65 1019.1
20260902165020 69 270 3.0 5.0 0.00 0.01 0.01 65 1019.0
20260902164226 69 248 4.0 6.0 0.00 0.01 0.01 65 1019.1
20260902163341 70 180 4.0 11.0 0.00 0.01 0.01 66 1019.1
20260902162320 70 225 4.0 13.0 0.00 0.01 0.01 64 1019.3
20260902161320 70 270 6.0 14.0 0.00 0.01 0.01 66 1019.4
20260902160342 70 270 4.0 7.0 0.00 0.01 0.01 66 1019.4
20260902155340 70 248 5.0 10.0 0.00 0.01 0.01 66 1019.3
20260902154320 71 248 6.0 13.0 0.00 0.01 0.01 66 1019.5
20260902153320 71 270 4.0 10.0 0.00 0.01 0.01 66 1019.5
20260902152331 71 293 3.0 5.0 0.00 0.01 0.01 67 1019.5
20260902151403 71 225 5.0 10.0 0.00 0.01 0.01 68 1019.6
20260902150320 71 248 4.0 9.0 0.00 0.01 0.01 69 1019.7
20260902145341 71 225 3.0 6.0 0.00 0.01 0.01 69 1019.6
20260902144320 71 248 4.0 8.0 0.00 0.01 0.01 69 1019.7
20260902143330 71 225 5.0 10.0 0.00 0.01 0.01 69 1019.7
20260902142330 72 270 3.0 6.0 0.00 0.01 0.01 68 1019.8
20260902141320 71 248 2.0 4.0 0.00 0.01 0.01 71 1019.8
20260902140320 71 248 3.0 4.0 0.00 0.01 0.01 69 1019.9
20260902135320 71 248 3.0 6.0 0.00 0.01 0.01 70 1019.9
20260902134330 71 270 3.0 6.0 0.00 0.01 0.01 70 1019.8
20260902133330 71 270 2.0 3.0 0.00 0.01 0.01 71 1019.8
20260902132352 70 225 6.0 10.0 0.00 0.01 0.01 72 1019.9
20260902131330 69 180 5.0 9.0 0.00 0.01 0.01 73 1020.0
20260902130330 69 248 4.0 8.0 0.00 0.01 0.01 73 1020.0
20260902125320 70 248 3.0 6.0 0.00 0.01 0.01 73 1019.9
20260902124320 71 248 5.0 9.0 0.00 0.01 0.01 70 1020.0